Tracking 30310 objects as of 25-Apr-2025
HD Live streaming from Space Station
objects crossing your sky now

NINGXIA-1 1

Track NINGXIA-1 1 now!
10-day predictions


NORAD ID: 44779
Int'l Code: 2019-076A
Perigee: 886.5 km
Apogee: 902.1 km
Inclination: 45.0 °
Period: 102.7 minutes
Semi major axis: 7265 km
RCS: Unknown
Launch date: November 13, 2019
Source: People's Republic of China (PRC)
Launch site: Taiyaun Space Center, China (TSC)
Your satellite tracking list
Your tracking list is empty




NASA's NSSDC Master Catalog

Two Line Element Set (TLE):
1 44779U 19076A   25115.16707013  .00000022  00000-0  98652-4 0  9991
2 44779  45.0067 247.7409 0010778 335.4923  24.5398 14.01915744279195
Source of the keplerian elements: AFSPC